This is the latest recevied weather packets stored in our database for station/object SR5NLK-1. If no packets are shown the sender has not sent any weather packets the latest 10 day(s).
| Time | Temp. | Humidity | Pressure | Rain* | Wind** | Luminosity | Snow |
|---|---|---|---|---|---|---|---|
| 1778067451 | 28.33° C | 34% | 1042.8 hPa | 0 mm | - | - | - |
| 1778067150 | 28.33° C | 33% | 1046 hPa | 0 mm | - | - | - |
| 1778066851 | 28.89° C | 33% | 1004.1 hPa | 0 mm | - | - | - |
| 1778066551 | 28.89° C | 33% | 1033.4 hPa | 0 mm | - | - | - |
| 1778066309 | 28.89° C | 33% | 1069.5 hPa | 0 mm | - | - | - |
| 1778066251 | 28.89° C | 33% | 969.8 hPa | 0 mm | - | - | - |
| 1778065951 | 28.89° C | 33% | 1074 hPa | 0 mm | - | - | - |
| 1778065651 | 28.33° C | 33% | 1042.8 hPa | 0 mm | - | - | - |
| 1778065350 | 28.89° C | 33% | 967.6 hPa | 0 mm | - | - | - |
| 1778065051 | 28.89° C | 32% | 1078.2 hPa | 0 mm | - | - | - |
| 1778064751 | 28.89° C | 32% | 1042.8 hPa | 0 mm | - | - | - |
| 1778064451 | 29.44° C | 32% | 965.4 hPa | 0 mm | - | - | - |
| 1778064330 | 29.44° C | 32% | 976.7 hPa | 0 mm | - | - | - |
| 1778064151 | 29.44° C | 31% | 1054.3 hPa | 0 mm | - | - | - |
| 1778063851 | 30° C | 30% | 1039.7 hPa | 0 mm | - | - | - |
| 1778063551 | 30° C | 30% | 1046.3 hPa | 0 mm | - | - | - |
| 1778063251 | 29.44° C | 31% | 1047.7 hPa | 0 mm | - | - | - |
| 1778062951 | 29.44° C | 31% | 921.5 hPa | 0 mm | - | - | - |
| 1778062651 | 28.89° C | 31% | 1055.4 hPa | 0 mm | - | - | - |
| 1778062350 | 28.89° C | 30% | 1051.4 hPa | 0 mm | - | - | - |
| 1778062051 | 28.89° C | 30% | 972.3 hPa | 0 mm | - | - | - |
| 1778061751 | 28.89° C | 30% | 1057.5 hPa | 0 mm | - | - | - |
| 1778061451 | 28.89° C | 30% | 1042.8 hPa | 0 mm | - | - | - |
| 1778061151 | 28.89° C | 30% | 1013.5 hPa | 0 mm | - | - | - |
| 1778060851 | 28.89° C | 30% | 1083.7 hPa | 0 mm | - | - | - |
* Rain latest hour (hover to see other rain measurements)
** Current wind speed in m/s (hover to see current wind gust speed)